Other Surface Observations
Issued by NWS

Home | Current Version | Previous Version | Text Only | Print | Product List | Glossary On
Versions: 1 2 3 4 5 6 7 8 9 10 11 12 13 14 15 16 17 18 19 20 21 22 23 24 25 26 27 28 29 30 31 32 33 34 35 36 37 38 39 40 41 42 43 44 45 46 47 48 49 50
000
SXUS52 KTAE 210116
OSOTAE
OSOTAE
North Florida/South Alabama/Southwest Georgia Weather Roundup
National Weather Service Tallahassee Florida
900 PM EDT TUE AUG 20 2019

Note: "fair" indicates few or no clouds below 12,000 feet with no
significant weather and/or obstructions to visibility.

!FLZ017-115-028-034-025-210200
...North Florida...

CITY           SKY/WX    TMP DP  RH WIND       PRES   REMARKS
TALL INTL ARPT CLOUDY    82  77  84 CALM      30.07S HX  90
FSU LOVE BLDG    N/A     84  75  74 S3          N/A  HX  92
APALACHICOLA   FAIR      81  76  84 CALM      30.06F
PERRY          FAIR      78  75  90 CALM      30.09S
CROSS CITY     FAIR      76  75  96 E5        30.08F
JACKSONVILLE   MOCLDY    82  76  81 SE6       30.09S
$$

!FLZ112-006-005-002-011-210200
...Florida Panhandle...

CITY           SKY/WX    TMP DP  RH WIND       PRES   REMARKS
MARIANNA       FAIR      75  74  96 E3        30.07R
BONIFAY        LGT RAIN  76  72  87 CALM      30.09R
PANAMA CITY NW FAIR      83  76  79 CALM      30.06R HX  91
TYNDALL AFB    FAIR      82  77  84 SE5       30.06R
TYND DRONE APT MOCLDY    80  76  86 SE3       30.07R
DE FUNIAK SPR  NOT AVBL
EGLIN AFB      MOCLDY    81  75  82 CALM      30.05S
DESTIN         FAIR      84  75  74 VRB3      30.05S HX  92
HURLBURT       CLOUDY    81  75  82 CALM      30.05R
CRESTVIEW      FAIR      81  73  76 S3        30.07F
PENSACOLA      FAIR      77  77 100 CALM      30.06R
$$

!ALZ063-066-210200
...South Alabama...

CITY           SKY/WX    TMP DP  RH WIND       PRES   REMARKS
DOTHAN         FAIR      76  73  91 NE6       30.12R
OZARK CAIRNS   FAIR      75  73  95 E7        30.08S
FT RUCKER HELI FAIR      74  74  99 CALM      30.07S
RUCKER HELI 3  FAIR      75  73  93 SE6       30.06
RUCKER HELI 2  FAIR      74  74 100 CALM      30.07F
FLORALA APT    FAIR      79  75  87 S3        30.08F
ANDALUSIA      FAIR      79  74  84 SE3       30.06F
TROY           FAIR      74  74 100 CALM      30.08F
EUFALA         NOT AVBL
MOBILE         MOCLDY    76  76 100 CALM      30.07R
$$

!GAZ120>161-210200
...Southwest and South Central Georgia...

CITY           SKY/WX    TMP DP  RH WIND       PRES   REMARKS
THOMASVILLE    FAIR      79  77  94 N3        30.09S
BAINBRIDGE     FAIR      78  76  92 W6        30.09R
MOODY AFB      MOCLDY    81  77  89 SE5       30.09R
VALDOSTA       FAIR      82  73  74 SE7       30.09R
MOULTRIE       FAIR      81  73  78 CALM      30.10R
BLAKELY        FAIR      73  70  88 CALM      30.10R
ALBANY         FAIR      81  76  84 SE3       30.10R
TIFTON         FAIR     N/A N/A N/A CALM      30.09
FITZGERALD     FAIR      78  78  98 CALM      30.12S
CORDELE        FAIR      77  76  98 CALM      30.11R
AMERICUS       FAIR      79  75  89 CALM      30.11S
HOMERVILLE     FAIR      79  72  78 S5        30.10S
$$

!GMZ750-755-770-775-210200
...Coastal and Buoy Obs...

STATION/POSITION TIME  TEMP    WIND        PRES    VSBY  WAVE
                       AIR SEA DIR/SP/G                  HT/PER
                 (UTC) (F)     (DEG/KT/KT) (MB)    (MI)  (FT/S)
KEATON BEACH     0100   75      60/  7/  8 1018.6F
CEDAR KEY        0100   75     270/  6/  8 1018.8S
C TOWER          0100   82     130/  5/  6 1018.6S
APALACHICOLA BUO 0100   83      80/  6/  8 1018.8
PANAMA CITY BUOY 0100      85  110/  8/ 10 1018.2
MOBILE BUOY      0100   82 85  280/ 10/ 12 1018.0
ORANGE BCH AL BU 0100   81 85  100/  2/  2 1018.2
$$



USA.gov is the U.S. government's official web portal to all federal, state and local government web resources and services.